owner,sensor,date,latitude,longitude,air_pressure(mBar),qcFlag 
WAVCIS,ioos:station:WAVCIS:CSI15:1,2011-06-01T00:00:00Z,28.8332,-90.8320,1019.18,11111222 
WAVCIS,ioos:station:WAVCIS:CSI15:1,2011-06-01T01:00:00Z,28.8332,-90.8320,1019.35,11111222 
WAVCIS,ioos:station:WAVCIS:CSI15:1,2011-06-01T02:00:00Z,28.8332,-90.8320,1019.36,11111222 
WAVCIS,ioos:station:WAVCIS:CSI15:1,2011-06-01T03:00:00Z,28.8332,-90.8320,1019.46,11111222 
WAVCIS,ioos:station:WAVCIS:CSI15:1,2011-06-01T04:00:00Z,28.8332,-90.8320,1019.8,11111222 
WAVCIS,ioos:station:WAVCIS:CSI15:1,2011-06-01T05:00:00Z,28.8332,-90.8320,1019.71,11111222 
WAVCIS,ioos:station:WAVCIS:CSI15:1,2011-06-01T06:00:00Z,28.8332,-90.8320,1019.23,11111222 
WAVCIS,ioos:station:WAVCIS:CSI15:1,2011-06-01T07:00:00Z,28.8332,-90.8320,1018.87,11111222 
WAVCIS,ioos:station:WAVCIS:CSI15:1,2011-06-01T08:00:00Z,28.8332,-90.8320,1018.74,11111222 
WAVCIS,ioos:station:WAVCIS:CSI15:1,2011-06-01T09:00:00Z,28.8332,-90.8320,1018.69,11111222 
WAVCIS,ioos:station:WAVCIS:CSI15:1,2011-06-01T10:00:00Z,28.8332,-90.8320,1018.76,11111222 
WAVCIS,ioos:station:WAVCIS:CSI15:1,2011-06-01T11:00:00Z,28.8332,-90.8320,1019.1,11111222 
WAVCIS,ioos:station:WAVCIS:CSI15:1,2011-06-01T12:00:00Z,28.8332,-90.8320,1019.52,11111222 
WAVCIS,ioos:station:WAVCIS:CSI15:1,2011-06-01T13:00:00Z,28.8332,-90.8320,1020.37,11111222 
WAVCIS,ioos:station:WAVCIS:CSI15:1,2011-06-01T14:00:00Z,28.8332,-90.8320,1020.62,11111222 
WAVCIS,ioos:station:WAVCIS:CSI15:1,2011-06-01T15:00:00Z,28.8332,-90.8320,1020.15,11111222 
WAVCIS,ioos:station:WAVCIS:CSI15:1,2011-06-01T16:00:00Z,28.8332,-90.8320,1019.78,11111222 
WAVCIS,ioos:station:WAVCIS:CSI15:1,2011-06-01T17:00:00Z,28.8332,-90.8320,1019.6,11111222 
WAVCIS,ioos:station:WAVCIS:CSI15:1,2011-06-01T18:00:00Z,28.8332,-90.8320,1019.0,11111222 
WAVCIS,ioos:station:WAVCIS:CSI15:1,2011-06-01T19:00:00Z,28.8332,-90.8320,1018.52,11111222 
WAVCIS,ioos:station:WAVCIS:CSI15:1,2011-06-01T20:00:00Z,28.8332,-90.8320,1017.83,11111222 
WAVCIS,ioos:station:WAVCIS:CSI15:1,2011-06-01T21:00:00Z,28.8332,-90.8320,1017.01,11111222 
WAVCIS,ioos:station:WAVCIS:CSI15:1,2011-06-01T22:00:00Z,28.8332,-90.8320,1016.45,11111222 
WAVCIS,ioos:station:WAVCIS:CSI15:1,2011-06-01T23:00:00Z,28.8332,-90.8320,1015.97,11111222 
WAVCIS,ioos:station:WAVCIS:CSI15:1,2011-06-02T00:00:00Z,28.8332,-90.8320,1015.73,11111222 
WAVCIS,ioos:station:WAVCIS:CSI15:1,2011-06-02T01:00:00Z,28.8332,-90.8320,1015.89,11111222 
WAVCIS,ioos:station:WAVCIS:CSI15:1,2011-06-02T02:00:00Z,28.8332,-90.8320,1015.66,11111222 
WAVCIS,ioos:station:WAVCIS:CSI15:1,2011-06-02T03:00:00Z,28.8332,-90.8320,1015.86,11111222 
WAVCIS,ioos:station:WAVCIS:CSI15:1,2011-06-02T04:00:00Z,28.8332,-90.8320,1016.2,11111222 
WAVCIS,ioos:station:WAVCIS:CSI15:1,2011-06-02T05:00:00Z,28.8332,-90.8320,1016.0,11111222 
WAVCIS,ioos:station:WAVCIS:CSI15:1,2011-06-02T06:00:00Z,28.8332,-90.8320,1015.26,11111222 
WAVCIS,ioos:station:WAVCIS:CSI15:1,2011-06-02T07:00:00Z,28.8332,-90.8320,1014.38,11111222 
WAVCIS,ioos:station:WAVCIS:CSI15:1,2011-06-02T08:00:00Z,28.8332,-90.8320,1013.92,11111222 
WAVCIS,ioos:station:WAVCIS:CSI15:1,2011-06-02T09:00:00Z,28.8332,-90.8320,1013.55,11111222 
WAVCIS,ioos:station:WAVCIS:CSI15:1,2011-06-02T10:00:00Z,28.8332,-90.8320,1014.04,11111222 
WAVCIS,ioos:station:WAVCIS:CSI15:1,2011-06-02T11:00:00Z,28.8332,-90.8320,1014.98,11111222 
WAVCIS,ioos:station:WAVCIS:CSI15:1,2011-06-02T12:00:00Z,28.8332,-90.8320,1015.13,11111222 
WAVCIS,ioos:station:WAVCIS:CSI15:1,2011-06-02T13:00:00Z,28.8332,-90.8320,1014.99,11111222 
WAVCIS,ioos:station:WAVCIS:CSI15:1,2011-06-02T14:00:00Z,28.8332,-90.8320,1014.55,11111222 
WAVCIS,ioos:station:WAVCIS:CSI15:1,2011-06-02T15:00:00Z,28.8332,-90.8320,1014.53,11111222 
WAVCIS,ioos:station:WAVCIS:CSI15:1,2011-06-02T16:00:00Z,28.8332,-90.8320,1014.41,11111222 
WAVCIS,ioos:station:WAVCIS:CSI15:1,2011-06-02T17:00:00Z,28.8332,-90.8320,1014.41,11111222 
WAVCIS,ioos:station:WAVCIS:CSI15:1,2011-06-02T18:00:00Z,28.8332,-90.8320,1013.94,11111222 
WAVCIS,ioos:station:WAVCIS:CSI15:1,2011-06-02T19:00:00Z,28.8332,-90.8320,1013.57,11111222 
WAVCIS,ioos:station:WAVCIS:CSI15:1,2011-06-02T20:00:00Z,28.8332,-90.8320,1013.3,11111222 
WAVCIS,ioos:station:WAVCIS:CSI15:1,2011-06-02T21:00:00Z,28.8332,-90.8320,1013.37,11111222 
WAVCIS,ioos:station:WAVCIS:CSI15:1,2011-06-02T22:00:00Z,28.8332,-90.8320,1013.4,11111222 
WAVCIS,ioos:station:WAVCIS:CSI15:1,2011-06-02T23:00:00Z,28.8332,-90.8320,1013.39,11111222 
WAVCIS,ioos:station:WAVCIS:CSI15:1,2011-06-03T00:00:00Z,28.8332,-90.8320,1013.37,11111222 
WAVCIS,ioos:station:WAVCIS:CSI15:1,2011-06-03T01:00:00Z,28.8332,-90.8320,1013.47,11111222 
WAVCIS,ioos:station:WAVCIS:CSI15:1,2011-06-03T02:00:00Z,28.8332,-90.8320,1013.61,11111222 
WAVCIS,ioos:station:WAVCIS:CSI15:1,2011-06-03T03:00:00Z,28.8332,-90.8320,1014.62,11111222 
WAVCIS,ioos:station:WAVCIS:CSI15:1,2011-06-03T04:00:00Z,28.8332,-90.8320,1015.19,11111222 
WAVCIS,ioos:station:WAVCIS:CSI15:1,2011-06-03T05:00:00Z,28.8332,-90.8320,1015.14,11111222 
WAVCIS,ioos:station:WAVCIS:CSI15:1,2011-06-03T06:00:00Z,28.8332,-90.8320,1014.91,11111222 
WAVCIS,ioos:station:WAVCIS:CSI15:1,2011-06-03T07:00:00Z,28.8332,-90.8320,1014.38,11111222 
WAVCIS,ioos:station:WAVCIS:CSI15:1,2011-06-03T08:00:00Z,28.8332,-90.8320,1014.44,11111222 
WAVCIS,ioos:station:WAVCIS:CSI15:1,2011-06-03T09:00:00Z,28.8332,-90.8320,1014.25,11111222 
WAVCIS,ioos:station:WAVCIS:CSI15:1,2011-06-03T10:00:00Z,28.8332,-90.8320,1014.09,11111222 
WAVCIS,ioos:station:WAVCIS:CSI15:1,2011-06-03T11:00:00Z,28.8332,-90.8320,1014.74,11111222 
WAVCIS,ioos:station:WAVCIS:CSI15:1,2011-06-03T12:00:00Z,28.8332,-90.8320,1015.11,11111222 
WAVCIS,ioos:station:WAVCIS:CSI15:1,2011-06-03T13:00:00Z,28.8332,-90.8320,1015.83,11111222 
WAVCIS,ioos:station:WAVCIS:CSI15:1,2011-06-03T14:00:00Z,28.8332,-90.8320,1016.54,11111222 
WAVCIS,ioos:station:WAVCIS:CSI15:1,2011-06-03T15:00:00Z,28.8332,-90.8320,1016.53,11111222 
WAVCIS,ioos:station:WAVCIS:CSI15:1,2011-06-03T16:00:00Z,28.8332,-90.8320,1016.74,11111222 
WAVCIS,ioos:station:WAVCIS:CSI15:1,2011-06-03T17:00:00Z,28.8332,-90.8320,1016.41,11111222 
WAVCIS,ioos:station:WAVCIS:CSI15:1,2011-06-03T18:00:00Z,28.8332,-90.8320,1016.03,11111222 
WAVCIS,ioos:station:WAVCIS:CSI15:1,2011-06-03T19:00:00Z,28.8332,-90.8320,1015.54,11111222 
WAVCIS,ioos:station:WAVCIS:CSI15:1,2011-06-03T20:00:00Z,28.8332,-90.8320,1015.23,11111222 
WAVCIS,ioos:station:WAVCIS:CSI15:1,2011-06-03T21:00:00Z,28.8332,-90.8320,1015.29,11111222 
WAVCIS,ioos:station:WAVCIS:CSI15:1,2011-06-03T22:00:00Z,28.8332,-90.8320,1015.06,11111222 
WAVCIS,ioos:station:WAVCIS:CSI15:1,2011-06-03T23:00:00Z,28.8332,-90.8320,1015.01,11111222 
WAVCIS,ioos:station:WAVCIS:CSI15:1,2011-06-04T00:00:00Z,28.8332,-90.8320,1015.13,11111222 
WAVCIS,ioos:station:WAVCIS:CSI15:1,2011-06-04T01:00:00Z,28.8332,-90.8320,1015.61,11111222 
WAVCIS,ioos:station:WAVCIS:CSI15:1,2011-06-04T02:00:00Z,28.8332,-90.8320,1015.8,11111222 
WAVCIS,ioos:station:WAVCIS:CSI15:1,2011-06-04T03:00:00Z,28.8332,-90.8320,1015.92,11111222 
WAVCIS,ioos:station:WAVCIS:CSI15:1,2011-06-04T04:00:00Z,28.8332,-90.8320,1016.35,11111222 
WAVCIS,ioos:station:WAVCIS:CSI15:1,2011-06-04T05:00:00Z,28.8332,-90.8320,1016.47,11111222 
WAVCIS,ioos:station:WAVCIS:CSI15:1,2011-06-04T06:00:00Z,28.8332,-90.8320,1015.76,11111222 
WAVCIS,ioos:station:WAVCIS:CSI15:1,2011-06-04T07:00:00Z,28.8332,-90.8320,1015.82,11111222 
WAVCIS,ioos:station:WAVCIS:CSI15:1,2011-06-04T08:00:00Z,28.8332,-90.8320,1015.82,11111222 
WAVCIS,ioos:station:WAVCIS:CSI15:1,2011-06-04T09:00:00Z,28.8332,-90.8320,1016.19,11111222 
WAVCIS,ioos:station:WAVCIS:CSI15:1,2011-06-04T10:00:00Z,28.8332,-90.8320,1016.5,11111222 
WAVCIS,ioos:station:WAVCIS:CSI15:1,2011-06-04T11:00:00Z,28.8332,-90.8320,1016.4,11111222 
WAVCIS,ioos:station:WAVCIS:CSI15:1,2011-06-04T12:00:00Z,28.8332,-90.8320,1016.84,11111222 
WAVCIS,ioos:station:WAVCIS:CSI15:1,2011-06-04T13:00:00Z,28.8332,-90.8320,1017.39,11111222 
WAVCIS,ioos:station:WAVCIS:CSI15:1,2011-06-04T14:00:00Z,28.8332,-90.8320,1018.1,11111222 
WAVCIS,ioos:station:WAVCIS:CSI15:1,2011-06-04T15:00:00Z,28.8332,-90.8320,1018.31,11111222 
WAVCIS,ioos:station:WAVCIS:CSI15:1,2011-06-04T16:00:00Z,28.8332,-90.8320,1018.37,11111222 
WAVCIS,ioos:station:WAVCIS:CSI15:1,2011-06-04T17:00:00Z,28.8332,-90.8320,1018.09,11111222 
WAVCIS,ioos:station:WAVCIS:CSI15:1,2011-06-04T18:00:00Z,28.8332,-90.8320,1017.61,11111222 
WAVCIS,ioos:station:WAVCIS:CSI15:1,2011-06-04T19:00:00Z,28.8332,-90.8320,1017.26,11111222 
WAVCIS,ioos:station:WAVCIS:CSI15:1,2011-06-04T20:00:00Z,28.8332,-90.8320,1016.93,11111222 
WAVCIS,ioos:station:WAVCIS:CSI15:1,2011-06-04T21:00:00Z,28.8332,-90.8320,1016.59,11111222 
WAVCIS,ioos:station:WAVCIS:CSI15:1,2011-06-04T22:00:00Z,28.8332,-90.8320,1015.9,11111222 
WAVCIS,ioos:station:WAVCIS:CSI15:1,2011-06-04T23:00:00Z,28.8332,-90.8320,1015.81,11111222 
WAVCIS,ioos:station:WAVCIS:CSI15:1,2011-06-05T00:00:00Z,28.8332,-90.8320,1015.62,11111222 
WAVCIS,ioos:station:WAVCIS:CSI15:1,2011-06-05T01:00:00Z,28.8332,-90.8320,1015.53,11111222 
WAVCIS,ioos:station:WAVCIS:CSI15:1,2011-06-05T02:00:00Z,28.8332,-90.8320,1015.95,11111222 
WAVCIS,ioos:station:WAVCIS:CSI15:1,2011-06-05T03:00:00Z,28.8332,-90.8320,1016.6,11111222 
WAVCIS,ioos:station:WAVCIS:CSI15:1,2011-06-05T04:00:00Z,28.8332,-90.8320,1016.72,11111222 
WAVCIS,ioos:station:WAVCIS:CSI15:1,2011-06-05T05:00:00Z,28.8332,-90.8320,1016.56,11111222 
WAVCIS,ioos:station:WAVCIS:CSI15:1,2011-06-05T06:00:00Z,28.8332,-90.8320,1015.94,11111222 
WAVCIS,ioos:station:WAVCIS:CSI15:1,2011-06-05T07:00:00Z,28.8332,-90.8320,1014.97,11111222 
WAVCIS,ioos:station:WAVCIS:CSI15:1,2011-06-05T08:00:00Z,28.8332,-90.8320,1014.72,11111222 
WAVCIS,ioos:station:WAVCIS:CSI15:1,2011-06-05T09:00:00Z,28.8332,-90.8320,1014.66,11111222 
WAVCIS,ioos:station:WAVCIS:CSI15:1,2011-06-05T10:00:00Z,28.8332,-90.8320,1015.02,11111222 
WAVCIS,ioos:station:WAVCIS:CSI15:1,2011-06-05T11:00:00Z,28.8332,-90.8320,1015.29,11111222 
WAVCIS,ioos:station:WAVCIS:CSI15:1,2011-06-05T12:00:00Z,28.8332,-90.8320,1015.02,11111222 
WAVCIS,ioos:station:WAVCIS:CSI15:1,2011-06-05T13:00:00Z,28.8332,-90.8320,1015.15,11111222 
WAVCIS,ioos:station:WAVCIS:CSI15:1,2011-06-05T14:00:00Z,28.8332,-90.8320,1015.68,11111222 
WAVCIS,ioos:station:WAVCIS:CSI15:1,2011-06-05T15:00:00Z,28.8332,-90.8320,1015.52,11111222 
WAVCIS,ioos:station:WAVCIS:CSI15:1,2011-06-05T16:00:00Z,28.8332,-90.8320,1015.48,11111222 
WAVCIS,ioos:station:WAVCIS:CSI15:1,2011-06-05T17:00:00Z,28.8332,-90.8320,1015.32,11111222 
WAVCIS,ioos:station:WAVCIS:CSI15:1,2011-06-05T18:00:00Z,28.8332,-90.8320,1015.26,11111222 
WAVCIS,ioos:station:WAVCIS:CSI15:1,2011-06-05T19:00:00Z,28.8332,-90.8320,1014.75,11111222 
WAVCIS,ioos:station:WAVCIS:CSI15:1,2011-06-05T20:00:00Z,28.8332,-90.8320,1014.05,11111222 
WAVCIS,ioos:station:WAVCIS:CSI15:1,2011-06-05T21:00:00Z,28.8332,-90.8320,1013.82,11111222 
WAVCIS,ioos:station:WAVCIS:CSI15:1,2011-06-05T22:00:00Z,28.8332,-90.8320,1013.47,11111222 
WAVCIS,ioos:station:WAVCIS:CSI15:1,2011-06-05T23:00:00Z,28.8332,-90.8320,1012.87,11111222 
WAVCIS,ioos:station:WAVCIS:CSI15:1,2011-06-06T00:00:00Z,28.8332,-90.8320,1012.57,11111222 
WAVCIS,ioos:station:WAVCIS:CSI15:1,2011-06-06T01:00:00Z,28.8332,-90.8320,1012.88,11111222 
WAVCIS,ioos:station:WAVCIS:CSI15:1,2011-06-06T02:00:00Z,28.8332,-90.8320,1013.22,11111222 
WAVCIS,ioos:station:WAVCIS:CSI15:1,2011-06-06T03:00:00Z,28.8332,-90.8320,1013.63,11111222 
WAVCIS,ioos:station:WAVCIS:CSI15:1,2011-06-06T04:00:00Z,28.8332,-90.8320,1013.92,11111222 
WAVCIS,ioos:station:WAVCIS:CSI15:1,2011-06-06T05:00:00Z,28.8332,-90.8320,1013.74,11111222 
WAVCIS,ioos:station:WAVCIS:CSI15:1,2011-06-06T06:00:00Z,28.8332,-90.8320,1012.94,11111222 
WAVCIS,ioos:station:WAVCIS:CSI15:1,2011-06-06T07:00:00Z,28.8332,-90.8320,1012.61,11111222 
WAVCIS,ioos:station:WAVCIS:CSI15:1,2011-06-06T08:00:00Z,28.8332,-90.8320,1012.17,11111222 
WAVCIS,ioos:station:WAVCIS:CSI15:1,2011-06-06T09:00:00Z,28.8332,-90.8320,1012.23,11111222 
WAVCIS,ioos:station:WAVCIS:CSI15:1,2011-06-06T10:00:00Z,28.8332,-90.8320,1012.25,11111222 
WAVCIS,ioos:station:WAVCIS:CSI15:1,2011-06-06T11:00:00Z,28.8332,-90.8320,1012.47,11111222 
WAVCIS,ioos:station:WAVCIS:CSI15:1,2011-06-06T12:00:00Z,28.8332,-90.8320,1012.6,11111222 
WAVCIS,ioos:station:WAVCIS:CSI15:1,2011-06-06T13:00:00Z,28.8332,-90.8320,1012.98,11111222 
WAVCIS,ioos:station:WAVCIS:CSI15:1,2011-06-06T14:00:00Z,28.8332,-90.8320,1013.01,11111222 
WAVCIS,ioos:station:WAVCIS:CSI15:1,2011-06-06T15:00:00Z,28.8332,-90.8320,1013.36,11111222 
WAVCIS,ioos:station:WAVCIS:CSI15:1,2011-06-06T16:00:00Z,28.8332,-90.8320,1013.44,11111222 
WAVCIS,ioos:station:WAVCIS:CSI15:1,2011-06-06T17:00:00Z,28.8332,-90.8320,1013.58,11111222 
WAVCIS,ioos:station:WAVCIS:CSI15:1,2011-06-06T18:00:00Z,28.8332,-90.8320,1013.2,11111222 
WAVCIS,ioos:station:WAVCIS:CSI15:1,2011-06-06T19:00:00Z,28.8332,-90.8320,1012.66,11111222 
WAVCIS,ioos:station:WAVCIS:CSI15:1,2011-06-06T20:00:00Z,28.8332,-90.8320,1011.69,11111222 
WAVCIS,ioos:station:WAVCIS:CSI15:1,2011-06-06T21:00:00Z,28.8332,-90.8320,1010.97,11111222 
WAVCIS,ioos:station:WAVCIS:CSI15:1,2011-06-06T22:00:00Z,28.8332,-90.8320,1011.34,11111222 
WAVCIS,ioos:station:WAVCIS:CSI15:1,2011-06-06T23:00:00Z,28.8332,-90.8320,1011.44,11111222 
WAVCIS,ioos:station:WAVCIS:CSI15:1,2011-06-07T00:00:00Z,28.8332,-90.8320,1011.43,11111222 
WAVCIS,ioos:station:WAVCIS:CSI15:1,2011-06-07T01:00:00Z,28.8332,-90.8320,1011.85,11111222 
WAVCIS,ioos:station:WAVCIS:CSI15:1,2011-06-07T02:00:00Z,28.8332,-90.8320,1011.33,11111222 
WAVCIS,ioos:station:WAVCIS:CSI15:1,2011-06-07T03:00:00Z,28.8332,-90.8320,1011.75,11111222 
WAVCIS,ioos:station:WAVCIS:CSI15:1,2011-06-07T04:00:00Z,28.8332,-90.8320,1012.03,11111222 
WAVCIS,ioos:station:WAVCIS:CSI15:1,2011-06-07T05:00:00Z,28.8332,-90.8320,1011.82,11111222 
WAVCIS,ioos:station:WAVCIS:CSI15:1,2011-06-07T06:00:00Z,28.8332,-90.8320,1011.63,11111222 
WAVCIS,ioos:station:WAVCIS:CSI15:1,2011-06-07T07:00:00Z,28.8332,-90.8320,1010.84,11111222 
WAVCIS,ioos:station:WAVCIS:CSI15:1,2011-06-07T08:00:00Z,28.8332,-90.8320,1010.6,11111222 
WAVCIS,ioos:station:WAVCIS:CSI15:1,2011-06-07T09:00:00Z,28.8332,-90.8320,1010.64,11111222 
WAVCIS,ioos:station:WAVCIS:CSI15:1,2011-06-07T10:00:00Z,28.8332,-90.8320,1010.92,11111222 
WAVCIS,ioos:station:WAVCIS:CSI15:1,2011-06-07T11:00:00Z,28.8332,-90.8320,1011.77,11111222 
WAVCIS,ioos:station:WAVCIS:CSI15:1,2011-06-07T12:00:00Z,28.8332,-90.8320,1011.65,11111222 
WAVCIS,ioos:station:WAVCIS:CSI15:1,2011-06-07T13:00:00Z,28.8332,-90.8320,1012.2,11111222 
WAVCIS,ioos:station:WAVCIS:CSI15:1,2011-06-07T14:00:00Z,28.8332,-90.8320,1012.74,11111222 
WAVCIS,ioos:station:WAVCIS:CSI15:1,2011-06-07T15:00:00Z,28.8332,-90.8320,1013.08,11111222 
WAVCIS,ioos:station:WAVCIS:CSI15:1,2011-06-07T16:00:00Z,28.8332,-90.8320,1013.05,11111222 
WAVCIS,ioos:station:WAVCIS:CSI15:1,2011-06-07T17:00:00Z,28.8332,-90.8320,1013.16,11111222 
WAVCIS,ioos:station:WAVCIS:CSI15:1,2011-06-07T18:00:00Z,28.8332,-90.8320,1013.18,11111222 
WAVCIS,ioos:station:WAVCIS:CSI15:1,2011-06-07T19:00:00Z,28.8332,-90.8320,1012.74,11111222 
WAVCIS,ioos:station:WAVCIS:CSI15:1,2011-06-07T20:00:00Z,28.8332,-90.8320,1012.32,11111222 
WAVCIS,ioos:station:WAVCIS:CSI15:1,2011-06-07T21:00:00Z,28.8332,-90.8320,1011.66,11111222 
WAVCIS,ioos:station:WAVCIS:CSI15:1,2011-06-07T22:00:00Z,28.8332,-90.8320,1011.02,11111222 
WAVCIS,ioos:station:WAVCIS:CSI15:1,2011-06-07T23:00:00Z,28.8332,-90.8320,1010.71,11111222 
WAVCIS,ioos:station:WAVCIS:CSI15:1,2011-06-08T00:00:00Z,28.8332,-90.8320,1010.94,11111222 
WAVCIS,ioos:station:WAVCIS:CSI15:1,2011-06-08T01:00:00Z,28.8332,-90.8320,1011.77,11111222 
WAVCIS,ioos:station:WAVCIS:CSI15:1,2011-06-08T02:00:00Z,28.8332,-90.8320,1012.48,11111222 
WAVCIS,ioos:station:WAVCIS:CSI15:1,2011-06-08T03:00:00Z,28.8332,-90.8320,1013.05,11111222 
WAVCIS,ioos:station:WAVCIS:CSI15:1,2011-06-08T04:00:00Z,28.8332,-90.8320,1013.68,11111222 
WAVCIS,ioos:station:WAVCIS:CSI15:1,2011-06-08T05:00:00Z,28.8332,-90.8320,1013.78,11111222 
WAVCIS,ioos:station:WAVCIS:CSI15:1,2011-06-08T06:00:00Z,28.8332,-90.8320,1012.99,11111222 
WAVCIS,ioos:station:WAVCIS:CSI15:1,2011-06-08T07:00:00Z,28.8332,-90.8320,1012.37,11111222 
WAVCIS,ioos:station:WAVCIS:CSI15:1,2011-06-08T08:00:00Z,28.8332,-90.8320,1011.93,11111222 
WAVCIS,ioos:station:WAVCIS:CSI15:1,2011-06-08T09:00:00Z,28.8332,-90.8320,1011.6,11111222 
WAVCIS,ioos:station:WAVCIS:CSI15:1,2011-06-08T10:00:00Z,28.8332,-90.8320,1011.67,11111222 
WAVCIS,ioos:station:WAVCIS:CSI15:1,2011-06-08T11:00:00Z,28.8332,-90.8320,1011.89,11111222 
WAVCIS,ioos:station:WAVCIS:CSI15:1,2011-06-08T12:00:00Z,28.8332,-90.8320,1012.5,11111222 
WAVCIS,ioos:station:WAVCIS:CSI15:1,2011-06-08T13:00:00Z,28.8332,-90.8320,1013.3,11111222 
WAVCIS,ioos:station:WAVCIS:CSI15:1,2011-06-08T14:00:00Z,28.8332,-90.8320,1013.89,11111222 
WAVCIS,ioos:station:WAVCIS:CSI15:1,2011-06-08T15:00:00Z,28.8332,-90.8320,1014.1,11111222 
WAVCIS,ioos:station:WAVCIS:CSI15:1,2011-06-08T16:00:00Z,28.8332,-90.8320,1014.21,11111222 
WAVCIS,ioos:station:WAVCIS:CSI15:1,2011-06-08T17:00:00Z,28.8332,-90.8320,1014.44,11111222 
WAVCIS,ioos:station:WAVCIS:CSI15:1,2011-06-08T18:00:00Z,28.8332,-90.8320,1014.11,11111222 
WAVCIS,ioos:station:WAVCIS:CSI15:1,2011-06-08T19:00:00Z,28.8332,-90.8320,1013.42,11111222 
WAVCIS,ioos:station:WAVCIS:CSI15:1,2011-06-08T20:00:00Z,28.8332,-90.8320,1013.16,11111222 
WAVCIS,ioos:station:WAVCIS:CSI15:1,2011-06-08T21:00:00Z,28.8332,-90.8320,1012.76,11111222 
WAVCIS,ioos:station:WAVCIS:CSI15:1,2011-06-08T22:00:00Z,28.8332,-90.8320,1012.46,11111222 
WAVCIS,ioos:station:WAVCIS:CSI15:1,2011-06-08T23:00:00Z,28.8332,-90.8320,1012.63,11111222 
WAVCIS,ioos:station:WAVCIS:CSI15:1,2011-06-09T00:00:00Z,28.8332,-90.8320,1012.93,11111222 
WAVCIS,ioos:station:WAVCIS:CSI15:1,2011-06-09T01:00:00Z,28.8332,-90.8320,1013.21,11111222 
WAVCIS,ioos:station:WAVCIS:CSI15:1,2011-06-09T02:00:00Z,28.8332,-90.8320,1013.26,11111222 
WAVCIS,ioos:station:WAVCIS:CSI15:1,2011-06-09T03:00:00Z,28.8332,-90.8320,1013.79,11111222 
WAVCIS,ioos:station:WAVCIS:CSI15:1,2011-06-09T04:00:00Z,28.8332,-90.8320,1013.95,11111222 
WAVCIS,ioos:station:WAVCIS:CSI15:1,2011-06-09T05:00:00Z,28.8332,-90.8320,1013.61,11111222 
WAVCIS,ioos:station:WAVCIS:CSI15:1,2011-06-09T06:00:00Z,28.8332,-90.8320,1013.12,11111222 
WAVCIS,ioos:station:WAVCIS:CSI15:1,2011-06-09T07:00:00Z,28.8332,-90.8320,1012.22,11111222 
WAVCIS,ioos:station:WAVCIS:CSI15:1,2011-06-09T08:00:00Z,28.8332,-90.8320,1011.91,11111222 
WAVCIS,ioos:station:WAVCIS:CSI15:1,2011-06-09T09:00:00Z,28.8332,-90.8320,1011.87,11111222 
WAVCIS,ioos:station:WAVCIS:CSI15:1,2011-06-09T10:00:00Z,28.8332,-90.8320,1012.29,11111222 
WAVCIS,ioos:station:WAVCIS:CSI15:1,2011-06-09T11:00:00Z,28.8332,-90.8320,1012.86,11111222 
WAVCIS,ioos:station:WAVCIS:CSI15:1,2011-06-09T12:00:00Z,28.8332,-90.8320,1013.41,11111222 
WAVCIS,ioos:station:WAVCIS:CSI15:1,2011-06-09T13:00:00Z,28.8332,-90.8320,1013.92,11111222 
WAVCIS,ioos:station:WAVCIS:CSI15:1,2011-06-09T14:00:00Z,28.8332,-90.8320,1014.0,11111222 
WAVCIS,ioos:station:WAVCIS:CSI15:1,2011-06-09T15:00:00Z,28.8332,-90.8320,1014.13,11111222 
WAVCIS,ioos:station:WAVCIS:CSI15:1,2011-06-09T16:00:00Z,28.8332,-90.8320,1014.39,11111222 
WAVCIS,ioos:station:WAVCIS:CSI15:1,2011-06-09T17:00:00Z,28.8332,-90.8320,1014.59,11111222 
WAVCIS,ioos:station:WAVCIS:CSI15:1,2011-06-09T18:00:00Z,28.8332,-90.8320,1014.37,11111222 
WAVCIS,ioos:station:WAVCIS:CSI15:1,2011-06-09T19:00:00Z,28.8332,-90.8320,1013.44,11111222 
WAVCIS,ioos:station:WAVCIS:CSI15:1,2011-06-09T20:00:00Z,28.8332,-90.8320,1013.11,11111222 
WAVCIS,ioos:station:WAVCIS:CSI15:1,2011-06-09T21:00:00Z,28.8332,-90.8320,1012.37,11111222 
WAVCIS,ioos:station:WAVCIS:CSI15:1,2011-06-09T22:00:00Z,28.8332,-90.8320,1012.4,11111222 
WAVCIS,ioos:station:WAVCIS:CSI15:1,2011-06-09T23:00:00Z,28.8332,-90.8320,1012.18,11111222 
WAVCIS,ioos:station:WAVCIS:CSI15:1,2011-06-10T00:00:00Z,28.8332,-90.8320,1012.26,11111222 
WAVCIS,ioos:station:WAVCIS:CSI15:1,2011-06-10T01:00:00Z,28.8332,-90.8320,1012.1,11111222 
WAVCIS,ioos:station:WAVCIS:CSI15:1,2011-06-10T02:00:00Z,28.8332,-90.8320,1012.09,11111222 
WAVCIS,ioos:station:WAVCIS:CSI15:1,2011-06-10T03:00:00Z,28.8332,-90.8320,1012.6,11111222 
WAVCIS,ioos:station:WAVCIS:CSI15:1,2011-06-10T04:00:00Z,28.8332,-90.8320,1012.99,11111222 
WAVCIS,ioos:station:WAVCIS:CSI15:1,2011-06-10T05:00:00Z,28.8332,-90.8320,1012.68,11111222 
WAVCIS,ioos:station:WAVCIS:CSI15:1,2011-06-10T06:00:00Z,28.8332,-90.8320,1012.26,11111222 
WAVCIS,ioos:station:WAVCIS:CSI15:1,2011-06-10T07:00:00Z,28.8332,-90.8320,1011.74,11111222 
WAVCIS,ioos:station:WAVCIS:CSI15:1,2011-06-10T08:00:00Z,28.8332,-90.8320,1011.5,11111222 
WAVCIS,ioos:station:WAVCIS:CSI15:1,2011-06-10T09:00:00Z,28.8332,-90.8320,1011.51,11111222 
WAVCIS,ioos:station:WAVCIS:CSI15:1,2011-06-10T10:00:00Z,28.8332,-90.8320,1011.66,11111222 
WAVCIS,ioos:station:WAVCIS:CSI15:1,2011-06-10T11:00:00Z,28.8332,-90.8320,1011.91,11111222 
WAVCIS,ioos:station:WAVCIS:CSI15:1,2011-06-10T12:00:00Z,28.8332,-90.8320,1012.39,11111222 
WAVCIS,ioos:station:WAVCIS:CSI15:1,2011-06-10T13:00:00Z,28.8332,-90.8320,1012.94,11111222 
WAVCIS,ioos:station:WAVCIS:CSI15:1,2011-06-10T14:00:00Z,28.8332,-90.8320,1013.34,11111222 
WAVCIS,ioos:station:WAVCIS:CSI15:1,2011-06-10T15:00:00Z,28.8332,-90.8320,1013.44,11111222 
WAVCIS,ioos:station:WAVCIS:CSI15:1,2011-06-10T16:00:00Z,28.8332,-90.8320,1013.44,11111222 
WAVCIS,ioos:station:WAVCIS:CSI15:1,2011-06-10T17:00:00Z,28.8332,-90.8320,1013.24,11111222 
WAVCIS,ioos:station:WAVCIS:CSI15:1,2011-06-10T18:00:00Z,28.8332,-90.8320,1013.21,11111222 
WAVCIS,ioos:station:WAVCIS:CSI15:1,2011-06-10T19:00:00Z,28.8332,-90.8320,1012.87,11111222 
WAVCIS,ioos:station:WAVCIS:CSI15:1,2011-06-10T20:00:00Z,28.8332,-90.8320,1012.43,11111222 
WAVCIS,ioos:station:WAVCIS:CSI15:1,2011-06-10T21:00:00Z,28.8332,-90.8320,1012.03,11111222 
WAVCIS,ioos:station:WAVCIS:CSI15:1,2011-06-10T22:00:00Z,28.8332,-90.8320,1011.4,11111222 
WAVCIS,ioos:station:WAVCIS:CSI15:1,2011-06-10T23:00:00Z,28.8332,-90.8320,1011.07,11111222 
WAVCIS,ioos:station:WAVCIS:CSI15:1,2011-06-11T00:00:00Z,28.8332,-90.8320,1011.1,11111222 
WAVCIS,ioos:station:WAVCIS:CSI15:1,2011-06-11T01:00:00Z,28.8332,-90.8320,1011.34,11111222 
WAVCIS,ioos:station:WAVCIS:CSI15:1,2011-06-11T02:00:00Z,28.8332,-90.8320,1011.53,11111222 
WAVCIS,ioos:station:WAVCIS:CSI15:1,2011-06-11T03:00:00Z,28.8332,-90.8320,1011.7,11111222 
WAVCIS,ioos:station:WAVCIS:CSI15:1,2011-06-11T04:00:00Z,28.8332,-90.8320,1011.81,11111222 
WAVCIS,ioos:station:WAVCIS:CSI15:1,2011-06-11T05:00:00Z,28.8332,-90.8320,1011.68,11111222 
WAVCIS,ioos:station:WAVCIS:CSI15:1,2011-06-11T06:00:00Z,28.8332,-90.8320,1011.1,11111222 
WAVCIS,ioos:station:WAVCIS:CSI15:1,2011-06-11T07:00:00Z,28.8332,-90.8320,1010.32,11111222 
WAVCIS,ioos:station:WAVCIS:CSI15:1,2011-06-11T08:00:00Z,28.8332,-90.8320,1010.15,11111222 
WAVCIS,ioos:station:WAVCIS:CSI15:1,2011-06-11T09:00:00Z,28.8332,-90.8320,1010.24,11111222 
WAVCIS,ioos:station:WAVCIS:CSI15:1,2011-06-11T10:00:00Z,28.8332,-90.8320,1010.64,11111222 
WAVCIS,ioos:station:WAVCIS:CSI15:1,2011-06-11T11:00:00Z,28.8332,-90.8320,1011.64,11111222 
WAVCIS,ioos:station:WAVCIS:CSI15:1,2011-06-11T12:00:00Z,28.8332,-90.8320,1012.31,11111222 
WAVCIS,ioos:station:WAVCIS:CSI15:1,2011-06-11T13:00:00Z,28.8332,-90.8320,1012.94,11111222 
WAVCIS,ioos:station:WAVCIS:CSI15:1,2011-06-11T14:00:00Z,28.8332,-90.8320,1013.02,11111222 
WAVCIS,ioos:station:WAVCIS:CSI15:1,2011-06-11T15:00:00Z,28.8332,-90.8320,1013.12,11111222 
WAVCIS,ioos:station:WAVCIS:CSI15:1,2011-06-11T16:00:00Z,28.8332,-90.8320,1012.79,11111222 
WAVCIS,ioos:station:WAVCIS:CSI15:1,2011-06-11T17:00:00Z,28.8332,-90.8320,1012.77,11111222 
WAVCIS,ioos:station:WAVCIS:CSI15:1,2011-06-11T18:00:00Z,28.8332,-90.8320,1012.56,11111222 
WAVCIS,ioos:station:WAVCIS:CSI15:1,2011-06-11T19:00:00Z,28.8332,-90.8320,1012.14,11111222 
WAVCIS,ioos:station:WAVCIS:CSI15:1,2011-06-11T20:00:00Z,28.8332,-90.8320,1011.95,11111222 
WAVCIS,ioos:station:WAVCIS:CSI15:1,2011-06-11T21:00:00Z,28.8332,-90.8320,1011.39,11111222 
WAVCIS,ioos:station:WAVCIS:CSI15:1,2011-06-11T22:00:00Z,28.8332,-90.8320,1011.06,11111222 